Regional Weather Roundup
Issued by NWS

Home | Current Version | Previous Version | Graphics & Text | Print | Product List | Glossary On
Versions: 1 2 3 4 5 6 7 8 9 10 11 12 13 14 15 16 17 18 19 20 21 22 23 24 25 26 27 28 29 30 31 32 33 34 35 36 37 38 39 40 41 42 43 44 45 46 47 48 49 50
000
ASUS43 KFSD 241702
RWRSD

WEATHER ROUNDUP FOR SOUTH DAKOTA
NATIONAL WEATHER SERVICE SIOUX FALLS SD
1100 AM CST FRI NOV 24 2017

NOTE: "FAIR" INDICATES FEW OR NO CLOUDS BELOW 12,000 FEET WITH NO
SIGNIFICANT WEATHER AND/OR OBSTRUCTIONS TO VISIBILITY.


SDZ001>005-009-010-012>017-241800-
NORTHWEST AND NORTH CENTRAL SOUTH DAKOTA

CITY           SKY/WX    TMP DP  RH WIND       PRES   REMARKS
FAITH            N/A     51  37  58 NW30G36   29.70R
MOBRIDGE       MOSUNNY   50  39  66 NW17G28   29.61R
$$

SDZ012>016-024>037-041>051-057-063-072>074-241800-
SOUTHWEST AND SOUTH CENTRAL SOUTH DAKOTA

CITY           SKY/WX    TMP DP  RH WIND       PRES   REMARKS
RAPID CTY ARPT CLOUDY    52  30  43 NW36G44   29.79R
PIERRE         CLOUDY    55  41  59 NW25G33   29.64R
CUSTER         SUNNY     45  28  51 NW17G30   29.80R
ELLSWORTH AFB  SUNNY     51  31  45 NW33G41   29.78R
PHILIP         CLOUDY    55  44  66 NW26G37   29.73R
PINE RIDGE     LGT RAIN  52  44  74 N9        29.79R
SPEARFISH      FAIR      46  32  57 NW20G30   29.85R
WINNER         FAIR      62  39  42 NW24G33   29.68R
$$

SDZ004>011-016>023-039-040-241800-
NORTHEAST SOUTH DAKOTA

CITY           SKY/WX    TMP DP  RH WIND       PRES   REMARKS
ABERDEEN       CLOUDY    55  43  63 NW28G39   29.51R
WATERTOWN      CLOUDY    51  45  79 W14       29.48S
BROOKINGS      PTSUNNY   58  42  55 NW18G31   29.53R
SISSETON         N/A     55  44  66 W22G33    29.41R
$$

SDZ017-020-022-023-036>040-048>070-241800-
SOUTHEAST SOUTH DAKOTA

CITY           SKY/WX    TMP DP  RH WIND       PRES   REMARKS
SIOUX FALLS    LGT RAIN  57  41  55 NW16      29.52R
HURON          LGT RAIN  55  42  61 W12       29.53S
CHAMBERLAIN    CLOUDY    60  41  48 NW10G18   29.63S
MITCHELL       CLOUDY    60  40  47 NW23G30   29.57R
YANKTON        SUNNY     60  40  47 NW30G36   29.53R
$$

ABBREVIATIONS USED IN REMARKS
   TC - TEMPERATURE IN CELSIUS
  WCI - WIND CHILL INDEX
   HX - HEAT INDEX
  VSB - VISIBILITY





USA.gov is the U.S. government's official web portal to all federal, state and local government web resources and services.